AUR86DB EGJB-EIDW

Flight info

Callsign AUR86DB
Flight time 1h 14m
Altitude 18000
Route SKERY L22 EMWIP P16 FIMCA N22 BHD DCT NICXI M17 VATRY VATRY3R
Aircraft AT76/M-SDFGIRY/S

Departure

Time 2026-04-24 19:16
Airport Guernsey Airport (EGJB)

Arrival

Time 2026-04-24 20:30
Airport Dublin Airport (EIDW)
Time Latitude Longitude Altitude Speed Heading
2026-04-24 18:54 49.43254 -2.59620 325 ft 0 kts 178°
2026-04-24 19:07 49.43259 -2.59621 325 ft 4 kts 178°
2026-04-24 19:07 49.43286 -2.59622 325 ft 4 kts 178°
2026-04-24 19:07 49.43304 -2.59623 325 ft 4 kts 178°
2026-04-24 19:07 49.43340 -2.59624 323 ft 4 kts 178°
2026-04-24 19:08 49.43359 -2.59625 326 ft 0 kts 178°
2026-04-24 19:11 49.43357 -2.59631 326 ft 1 kts 230°
2026-04-24 19:11 49.43359 -2.59696 325 ft 12 kts 268°
2026-04-24 19:12 49.43345 -2.59823 322 ft 13 kts 268°
2026-04-24 19:12 49.43341 -2.59971 313 ft 15 kts 268°
2026-04-24 19:12 49.43337 -2.60128 301 ft 15 kts 268°
2026-04-24 19:12 49.43333 -2.60279 292 ft 16 kts 268°
2026-04-24 19:13 49.43330 -2.60402 289 ft 18 kts 268°
2026-04-24 19:13 49.43334 -2.60669 292 ft 18 kts 280°
2026-04-24 19:13 49.43355 -2.60842 301 ft 14 kts 279°
2026-04-24 19:13 49.43365 -2.60977 310 ft 12 kts 267°
2026-04-24 19:14 49.43360 -2.61124 308 ft 15 kts 267°
2026-04-24 19:14 49.43372 -2.61274 310 ft 14 kts 303°
2026-04-24 19:14 49.43438 -2.61355 312 ft 11 kts 351°
2026-04-24 19:14 49.43466 -2.61307 312 ft 4 kts 89°
2026-04-24 19:15 49.43467 -2.61303 312 ft 0 kts 89°
2026-04-24 19:15 49.43468 -2.61227 311 ft 31 kts 88°
2026-04-24 19:15 49.43487 -2.60555 304 ft 92 kts 88°
2026-04-24 19:15 49.43516 -2.59378 535 ft 115 kts 85°
2026-04-24 19:16 49.43556 -2.56805 1665 ft 121 kts 88°
2026-04-24 19:16 49.43616 -2.55469 1945 ft 136 kts 82°
2026-04-24 19:16 49.44240 -2.54204 1975 ft 171 kts 29°
2026-04-24 19:17 49.45453 -2.54150 2331 ft 186 kts 340°
2026-04-24 19:17 49.46551 -2.55241 2643 ft 189 kts 324°
2026-04-24 19:17 49.47631 -2.56419 3040 ft 192 kts 323°
2026-04-24 19:17 49.48701 -2.57628 3463 ft 194 kts 321°
2026-04-24 19:18 49.49778 -2.58900 3935 ft 191 kts 321°
2026-04-24 19:18 49.50814 -2.60134 4422 ft 188 kts 320°
2026-04-24 19:18 49.51848 -2.61370 4837 ft 188 kts 321°
2026-04-24 19:18 49.52886 -2.62594 5227 ft 188 kts 322°
2026-04-24 19:19 49.53932 -2.63801 5594 ft 189 kts 322°
2026-04-24 19:19 49.54995 -2.65025 5938 ft 192 kts 323°
2026-04-24 19:19 49.56069 -2.66258 6317 ft 192 kts 323°
2026-04-24 19:19 49.57146 -2.67499 6649 ft 195 kts 324°
2026-04-24 19:20 49.58232 -2.68742 7007 ft 194 kts 323°
2026-04-24 19:20 49.59333 -2.70005 7307 ft 198 kts 323°
2026-04-24 19:20 49.60432 -2.71272 7659 ft 199 kts 323°
2026-04-24 19:20 49.61542 -2.72558 7995 ft 199 kts 323°
2026-04-24 19:21 49.62652 -2.73837 8346 ft 199 kts 323°
2026-04-24 19:21 49.63762 -2.75118 8671 ft 200 kts 322°
2026-04-24 19:21 49.64889 -2.76422 8938 ft 204 kts 322°
2026-04-24 19:21 49.66019 -2.77731 9294 ft 204 kts 322°
2026-04-24 19:22 49.66770 -2.78598 9491 ft 206 kts 322°
2026-04-24 19:22 49.68316 -2.80388 9901 ft 208 kts 322°
2026-04-24 19:22 49.69470 -2.81726 10234 ft 206 kts 322°
2026-04-24 19:22 49.70623 -2.83057 10493 ft 209 kts 322°
2026-04-24 19:23 49.71785 -2.84396 10821 ft 207 kts 322°
2026-04-24 19:23 49.72947 -2.85731 11085 ft 208 kts 322°
2026-04-24 19:23 49.74109 -2.87068 11349 ft 210 kts 321°
2026-04-24 19:23 49.75290 -2.88416 11628 ft 211 kts 322°
2026-04-24 19:24 49.76470 -2.89771 11888 ft 212 kts 321°
2026-04-24 19:24 49.77666 -2.91139 12114 ft 216 kts 321°
2026-04-24 19:24 49.78866 -2.92533 12407 ft 214 kts 321°
2026-04-24 19:24 49.80056 -2.93923 12676 ft 215 kts 321°
2026-04-24 19:25 49.81259 -2.95318 12926 ft 217 kts 322°
2026-04-24 19:25 49.82454 -2.96717 13237 ft 215 kts 321°
2026-04-24 19:25 49.83660 -2.98115 13457 ft 218 kts 321°
2026-04-24 19:25 49.84874 -2.99531 13696 ft 220 kts 320°
2026-04-24 19:26 49.86088 -3.00964 13978 ft 219 kts 321°
2026-04-24 19:26 49.87315 -3.02405 14162 ft 222 kts 320°
2026-04-24 19:26 49.88135 -3.03358 14292 ft 223 kts 321°
2026-04-24 19:26 49.89376 -3.04803 14535 ft 221 kts 320°
2026-04-24 19:27 49.90597 -3.06254 14755 ft 223 kts 320°
2026-04-24 19:27 49.91831 -3.07708 14979 ft 223 kts 320°
2026-04-24 19:27 49.93060 -3.09165 15232 ft 221 kts 321°
2026-04-24 19:27 49.94284 -3.10606 15439 ft 223 kts 320°
2026-04-24 19:28 49.95532 -3.12046 15621 ft 224 kts 320°
2026-04-24 19:28 49.96778 -3.13490 15831 ft 223 kts 319°
2026-04-24 19:28 49.98030 -3.14943 15987 ft 226 kts 318°
2026-04-24 19:28 49.99275 -3.16417 16191 ft 225 kts 318°
2026-04-24 19:29 50.02044 -3.18752 16553 ft 227 kts 331°
2026-04-24 19:29 50.03459 -3.19883 16728 ft 229 kts 329°
2026-04-24 19:29 50.04869 -3.21063 16874 ft 232 kts 329°
2026-04-24 19:30 50.06288 -3.22249 17091 ft 232 kts 328°
2026-04-24 19:30 50.07722 -3.23429 17248 ft 234 kts 328°
2026-04-24 19:30 50.09160 -3.24601 17479 ft 232 kts 329°
2026-04-24 19:30 50.10605 -3.25746 17633 ft 234 kts 330°
2026-04-24 19:31 50.12050 -3.26888 17841 ft 233 kts 330°
2026-04-24 19:31 50.13498 -3.28027 17990 ft 234 kts 330°
2026-04-24 19:31 50.14956 -3.29180 18107 ft 236 kts 330°
2026-04-24 19:31 50.16429 -3.30353 18164 ft 240 kts 330°
2026-04-24 19:32 50.17927 -3.31555 18184 ft 244 kts 329°
2026-04-24 19:32 50.19449 -3.32779 18194 ft 248 kts 330°
2026-04-24 19:32 50.20972 -3.34010 18197 ft 251 kts 330°
2026-04-24 19:32 50.22532 -3.35267 18199 ft 254 kts 330°
2026-04-24 19:33 50.24106 -3.36540 18199 ft 256 kts 330°
2026-04-24 19:33 50.25696 -3.37825 18199 ft 258 kts 329°
2026-04-24 19:33 50.27294 -3.39123 18200 ft 260 kts 330°
2026-04-24 19:33 50.28904 -3.40426 18209 ft 261 kts 330°
2026-04-24 19:34 50.30517 -3.41734 18208 ft 262 kts 330°
2026-04-24 19:34 50.32136 -3.43045 18208 ft 262 kts 330°
2026-04-24 19:34 50.33757 -3.44365 18208 ft 263 kts 330°
2026-04-24 19:34 50.35381 -3.45682 18207 ft 263 kts 330°
2026-04-24 19:35 50.37007 -3.47011 18206 ft 264 kts 330°
2026-04-24 19:35 50.38635 -3.48337 18211 ft 263 kts 330°
2026-04-24 19:35 50.40252 -3.49684 18213 ft 263 kts 328°
2026-04-24 19:35 50.41835 -3.51128 18212 ft 263 kts 326°
2026-04-24 19:36 50.43397 -3.52607 18213 ft 262 kts 326°
2026-04-24 19:36 50.44965 -3.54078 18212 ft 263 kts 327°
2026-04-24 19:36 50.46536 -3.55536 18219 ft 263 kts 327°
2026-04-24 19:36 50.48109 -3.57000 18220 ft 263 kts 327°
2026-04-24 19:37 50.49681 -3.58467 18217 ft 263 kts 327°
2026-04-24 19:37 50.51251 -3.59928 18220 ft 263 kts 327°
2026-04-24 19:37 50.52823 -3.61397 18219 ft 263 kts 327°
2026-04-24 19:37 50.54393 -3.62864 18219 ft 263 kts 327°
2026-04-24 19:38 50.55968 -3.64336 18215 ft 263 kts 327°
2026-04-24 19:38 50.57539 -3.65804 18224 ft 263 kts 327°
2026-04-24 19:38 50.59113 -3.67278 18224 ft 263 kts 327°
2026-04-24 19:38 50.60684 -3.68754 18225 ft 263 kts 327°
2026-04-24 19:39 50.62259 -3.70227 18218 ft 263 kts 327°
2026-04-24 19:39 50.63829 -3.71702 18233 ft 263 kts 327°
2026-04-24 19:39 50.65399 -3.73175 18239 ft 263 kts 327°
2026-04-24 19:39 50.66974 -3.74661 18232 ft 264 kts 326°
2026-04-24 19:40 50.68535 -3.76135 18214 ft 265 kts 327°
2026-04-24 19:40 50.70117 -3.77622 18214 ft 265 kts 327°
2026-04-24 19:40 50.71697 -3.79108 18221 ft 265 kts 326°
2026-04-24 19:40 50.73278 -3.80600 18218 ft 265 kts 327°
2026-04-24 19:41 50.74860 -3.82091 18217 ft 265 kts 327°
2026-04-24 19:41 50.76441 -3.83585 18218 ft 265 kts 327°
2026-04-24 19:41 50.78020 -3.85077 18219 ft 265 kts 327°
2026-04-24 19:41 50.79601 -3.86576 18219 ft 265 kts 326°
2026-04-24 19:42 50.81180 -3.88070 18217 ft 265 kts 326°
2026-04-24 19:42 50.82760 -3.89570 18220 ft 265 kts 327°
2026-04-24 19:42 50.84339 -3.91064 18215 ft 265 kts 327°
2026-04-24 19:42 50.85916 -3.92564 18218 ft 265 kts 327°
2026-04-24 19:43 50.87495 -3.94064 18214 ft 265 kts 327°
2026-04-24 19:43 50.89071 -3.95563 18210 ft 264 kts 327°
2026-04-24 19:43 50.90648 -3.97060 18210 ft 264 kts 327°
2026-04-24 19:43 50.92221 -3.98559 18215 ft 264 kts 327°
2026-04-24 19:44 50.93800 -4.00062 18211 ft 265 kts 327°
2026-04-24 19:44 50.95379 -4.01567 18208 ft 264 kts 327°
2026-04-24 19:44 50.96956 -4.03073 18211 ft 264 kts 327°
2026-04-24 19:44 50.98527 -4.04575 18208 ft 264 kts 327°
2026-04-24 19:45 51.00104 -4.06083 18207 ft 264 kts 327°
2026-04-24 19:45 51.01676 -4.07591 18210 ft 264 kts 327°
2026-04-24 19:45 51.03251 -4.09096 18210 ft 265 kts 327°
2026-04-24 19:45 51.04827 -4.10607 18208 ft 265 kts 327°
2026-04-24 19:46 51.06405 -4.12118 18208 ft 265 kts 327°
2026-04-24 19:46 51.07959 -4.13614 18209 ft 265 kts 327°
2026-04-24 19:46 51.09535 -4.15128 18209 ft 265 kts 327°
2026-04-24 19:46 51.11110 -4.16640 18211 ft 265 kts 327°
2026-04-24 19:47 51.12687 -4.18159 18209 ft 265 kts 326°
2026-04-24 19:47 51.14266 -4.19681 18206 ft 265 kts 327°
2026-04-24 19:47 51.15843 -4.21200 18207 ft 265 kts 327°
2026-04-24 19:47 51.17420 -4.22721 18202 ft 265 kts 327°
2026-04-24 19:48 51.18993 -4.24237 18205 ft 265 kts 326°
2026-04-24 19:48 51.20565 -4.25759 18206 ft 264 kts 327°
2026-04-24 19:48 51.23705 -4.28796 18215 ft 264 kts 326°
2026-04-24 19:49 51.26849 -4.31854 18210 ft 265 kts 326°
2026-04-24 19:49 51.30001 -4.34901 18209 ft 265 kts 326°
2026-04-24 19:50 51.34726 -4.39498 18211 ft 265 kts 326°
2026-04-24 19:50 51.36299 -4.41031 18203 ft 265 kts 326°
2026-04-24 19:51 51.39449 -4.44103 18203 ft 265 kts 326°
2026-04-24 19:51 51.41026 -4.45642 18203 ft 265 kts 326°
2026-04-24 19:52 51.44166 -4.48712 18205 ft 265 kts 326°
2026-04-24 19:52 51.45740 -4.50251 18205 ft 265 kts 326°
2026-04-24 19:52 51.47315 -4.51796 18205 ft 265 kts 326°
2026-04-24 19:52 51.48890 -4.53339 18209 ft 265 kts 326°
2026-04-24 19:53 51.50464 -4.54885 18207 ft 265 kts 326°
2026-04-24 19:53 51.52014 -4.56408 18206 ft 265 kts 326°
2026-04-24 19:53 51.55160 -4.59500 18206 ft 265 kts 326°
2026-04-24 19:54 51.56732 -4.61045 18210 ft 265 kts 326°
2026-04-24 19:54 51.58305 -4.62596 18209 ft 265 kts 326°
2026-04-24 19:54 51.59875 -4.64146 18207 ft 265 kts 326°
2026-04-24 19:54 51.61450 -4.65697 18206 ft 265 kts 326°
2026-04-24 19:55 51.62487 -4.66725 18205 ft 265 kts 326°
2026-04-24 19:55 51.64589 -4.68801 18207 ft 265 kts 326°
2026-04-24 19:55 51.66157 -4.70350 18207 ft 265 kts 326°
2026-04-24 19:55 51.67727 -4.71909 18214 ft 265 kts 326°
2026-04-24 19:56 51.69298 -4.73464 18210 ft 265 kts 326°
2026-04-24 19:56 51.70868 -4.75021 18209 ft 265 kts 326°
2026-04-24 19:56 51.72442 -4.76586 18209 ft 265 kts 326°
2026-04-24 19:56 51.74014 -4.78148 18208 ft 265 kts 326°
2026-04-24 19:57 51.75585 -4.79705 18211 ft 265 kts 326°
2026-04-24 19:57 51.77159 -4.81270 18209 ft 265 kts 326°
2026-04-24 19:57 51.78729 -4.82836 18207 ft 265 kts 326°
2026-04-24 19:57 51.80299 -4.84399 18208 ft 265 kts 326°
2026-04-24 19:58 51.81866 -4.85961 18211 ft 265 kts 326°
2026-04-24 19:58 51.83438 -4.87530 18210 ft 265 kts 326°
2026-04-24 19:58 51.85006 -4.89099 18207 ft 265 kts 326°
2026-04-24 19:58 51.86581 -4.90673 18206 ft 266 kts 326°
2026-04-24 19:59 51.88157 -4.92252 18203 ft 267 kts 326°
2026-04-24 19:59 51.89736 -4.93832 18213 ft 267 kts 326°
2026-04-24 19:59 51.91293 -4.95393 18205 ft 267 kts 326°
2026-04-24 19:59 51.92891 -4.97001 18213 ft 267 kts 326°
2026-04-24 20:00 51.94453 -4.98570 18207 ft 268 kts 327°
2026-04-24 20:00 51.96036 -5.00158 18209 ft 268 kts 326°
2026-04-24 20:00 51.97618 -5.01748 18211 ft 268 kts 326°
2026-04-24 20:00 51.99201 -5.03338 18215 ft 268 kts 327°
2026-04-24 20:01 52.00785 -5.04929 18213 ft 267 kts 327°
2026-04-24 20:01 52.02399 -5.06438 18212 ft 268 kts 329°
2026-04-24 20:01 52.04052 -5.07838 18209 ft 268 kts 332°
2026-04-24 20:01 52.05730 -5.09173 18209 ft 268 kts 332°
2026-04-24 20:02 52.06840 -5.10058 18209 ft 268 kts 332°
2026-04-24 20:02 52.09074 -5.11867 18210 ft 268 kts 332°
2026-04-24 20:02 52.10740 -5.13230 18211 ft 268 kts 332°
2026-04-24 20:02 52.12399 -5.14583 18211 ft 268 kts 332°
2026-04-24 20:03 52.14068 -5.15950 18211 ft 268 kts 332°
2026-04-24 20:03 52.15731 -5.17310 18211 ft 268 kts 332°
2026-04-24 20:03 52.17398 -5.18663 18214 ft 268 kts 332°
2026-04-24 20:03 52.19061 -5.20025 18212 ft 267 kts 332°
2026-04-24 20:04 52.20724 -5.21387 18211 ft 267 kts 332°
2026-04-24 20:04 52.22387 -5.22746 18211 ft 267 kts 332°
2026-04-24 20:04 52.24049 -5.24109 18211 ft 267 kts 332°
2026-04-24 20:04 52.25709 -5.25470 18211 ft 267 kts 332°
2026-04-24 20:05 52.27371 -5.26835 18214 ft 267 kts 332°
2026-04-24 20:05 52.29031 -5.28202 18214 ft 267 kts 332°
2026-04-24 20:05 52.30690 -5.29563 18213 ft 267 kts 332°
2026-04-24 20:05 52.32352 -5.30931 18213 ft 267 kts 332°
2026-04-24 20:06 52.34009 -5.32298 18211 ft 267 kts 332°
2026-04-24 20:06 52.35670 -5.33665 18214 ft 267 kts 332°
2026-04-24 20:06 52.37323 -5.35031 18214 ft 267 kts 332°
2026-04-24 20:06 52.38985 -5.36405 18211 ft 267 kts 332°
2026-04-24 20:07 52.40082 -5.37316 18211 ft 267 kts 332°
2026-04-24 20:07 52.42304 -5.39159 18212 ft 268 kts 333°
2026-04-24 20:07 52.43971 -5.40525 18211 ft 268 kts 332°
2026-04-24 20:07 52.45641 -5.41908 18217 ft 269 kts 332°
2026-04-24 20:08 52.47304 -5.43292 18217 ft 269 kts 332°
2026-04-24 20:08 52.48970 -5.44673 18055 ft 276 kts 332°
2026-04-24 20:08 52.50709 -5.46119 17790 ft 284 kts 332°
2026-04-24 20:08 52.52488 -5.47600 17583 ft 289 kts 332°
2026-04-24 20:09 52.54296 -5.49104 17374 ft 293 kts 332°
2026-04-24 20:09 52.55955 -5.51075 17156 ft 291 kts 317°
2026-04-24 20:09 52.57490 -5.53269 16946 ft 294 kts 318°
2026-04-24 20:09 52.59020 -5.55460 16744 ft 297 kts 318°
2026-04-24 20:10 52.60598 -5.57730 16535 ft 299 kts 318°
2026-04-24 20:10 52.62150 -5.59958 16337 ft 301 kts 318°
2026-04-24 20:10 52.63727 -5.62228 16136 ft 303 kts 318°
2026-04-24 20:10 52.65315 -5.64524 15933 ft 305 kts 319°
2026-04-24 20:11 52.66918 -5.66827 15731 ft 306 kts 319°
2026-04-24 20:11 52.68526 -5.69143 15531 ft 308 kts 319°
2026-04-24 20:11 52.70138 -5.71468 15335 ft 309 kts 319°
2026-04-24 20:11 52.71759 -5.73808 15111 ft 311 kts 319°
2026-04-24 20:12 52.73375 -5.76144 14863 ft 306 kts 319°
2026-04-24 20:12 52.74956 -5.78441 14627 ft 300 kts 319°
2026-04-24 20:12 52.76010 -5.79969 14463 ft 297 kts 319°
2026-04-24 20:12 52.78051 -5.82930 14150 ft 293 kts 319°
2026-04-24 20:13 52.79578 -5.85143 13892 ft 291 kts 319°
2026-04-24 20:13 52.81088 -5.87342 13657 ft 288 kts 319°
2026-04-24 20:13 52.82586 -5.89522 13420 ft 286 kts 319°
2026-04-24 20:13 52.84076 -5.91694 13181 ft 284 kts 319°
2026-04-24 20:14 52.85555 -5.93853 12952 ft 283 kts 319°
2026-04-24 20:14 52.87026 -5.96001 12715 ft 282 kts 319°
2026-04-24 20:14 52.88495 -5.98143 12484 ft 281 kts 319°
2026-04-24 20:14 52.89956 -6.00282 12255 ft 280 kts 319°
2026-04-24 20:15 52.91412 -6.02411 12027 ft 279 kts 319°
2026-04-24 20:15 52.92867 -6.04548 11809 ft 279 kts 318°
2026-04-24 20:15 52.94319 -6.06679 11596 ft 279 kts 319°
2026-04-24 20:15 52.95772 -6.08808 11375 ft 279 kts 318°
2026-04-24 20:16 52.96734 -6.10224 11228 ft 279 kts 318°
2026-04-24 20:16 52.98184 -6.12356 11000 ft 278 kts 319°
2026-04-24 20:16 52.99636 -6.14481 10784 ft 278 kts 319°
2026-04-24 20:16 53.01087 -6.16596 10567 ft 278 kts 319°
2026-04-24 20:17 53.02536 -6.18711 10350 ft 277 kts 319°
2026-04-24 20:17 53.05432 -6.22939 9903 ft 277 kts 319°
2026-04-24 20:17 53.06877 -6.25048 9663 ft 276 kts 319°
2026-04-24 20:18 53.08320 -6.27152 9425 ft 276 kts 319°
2026-04-24 20:18 53.09757 -6.29249 9194 ft 273 kts 319°
2026-04-24 20:18 53.11175 -6.31321 8951 ft 270 kts 319°
2026-04-24 20:18 53.12577 -6.33376 8729 ft 267 kts 319°
2026-04-24 20:19 53.13962 -6.35409 8480 ft 265 kts 318°
2026-04-24 20:19 53.15342 -6.37433 8243 ft 263 kts 318°
2026-04-24 20:19 53.16706 -6.39435 8029 ft 261 kts 318°
2026-04-24 20:19 53.18067 -6.41430 7808 ft 260 kts 319°
2026-04-24 20:20 53.19421 -6.43416 7572 ft 259 kts 318°
2026-04-24 20:20 53.20770 -6.45398 7366 ft 258 kts 318°
2026-04-24 20:20 53.22117 -6.47375 7140 ft 257 kts 318°
2026-04-24 20:20 53.23456 -6.49340 6923 ft 256 kts 318°
2026-04-24 20:21 53.24794 -6.51299 6705 ft 255 kts 318°
2026-04-24 20:21 53.26128 -6.53255 6484 ft 255 kts 318°
2026-04-24 20:21 53.27457 -6.55199 6246 ft 252 kts 319°
2026-04-24 20:21 53.28753 -6.57086 6006 ft 243 kts 318°
2026-04-24 20:22 53.30013 -6.58924 5739 ft 237 kts 318°
2026-04-24 20:22 53.31243 -6.60724 5485 ft 234 kts 318°
2026-04-24 20:22 53.32466 -6.62510 5241 ft 232 kts 318°
2026-04-24 20:22 53.33707 -6.64197 4990 ft 228 kts 330°
2026-04-24 20:23 53.35251 -6.64865 4722 ft 235 kts 356°
2026-04-24 20:23 53.36889 -6.65024 4443 ft 235 kts 359°
2026-04-24 20:23 53.38517 -6.65148 4163 ft 231 kts 359°
2026-04-24 20:23 53.40048 -6.65263 3886 ft 214 kts 359°
2026-04-24 20:24 53.41529 -6.65377 3608 ft 211 kts 359°
2026-04-24 20:24 53.42977 -6.65486 3327 ft 205 kts
2026-04-24 20:24 53.44288 -6.64970 3145 ft 188 kts 38°
2026-04-24 20:24 53.45093 -6.63432 3044 ft 171 kts 66°
2026-04-24 20:25 53.45376 -6.61590 2997 ft 158 kts 92°
2026-04-24 20:25 53.45417 -6.59753 2987 ft 162 kts 92°
2026-04-24 20:25 53.45411 -6.57824 2975 ft 164 kts 97°
2026-04-24 20:25 53.45311 -6.55932 2971 ft 165 kts 100°
2026-04-24 20:26 53.45171 -6.54008 2970 ft 167 kts 100°
2026-04-24 20:26 53.45034 -6.52073 2973 ft 168 kts 99°
2026-04-24 20:26 53.44917 -6.50089 2823 ft 173 kts 98°
2026-04-24 20:26 53.44820 -6.48075 2599 ft 174 kts 97°
2026-04-24 20:27 53.44722 -6.46081 2367 ft 167 kts 98°
2026-04-24 20:27 53.44613 -6.44203 2144 ft 157 kts 98°
2026-04-24 20:27 53.44511 -6.42425 1936 ft 149 kts 98°
2026-04-24 20:27 53.44422 -6.40760 1740 ft 138 kts 98°
2026-04-24 20:28 53.44340 -6.39253 1571 ft 122 kts 98°
2026-04-24 20:28 53.44264 -6.37866 1403 ft 120 kts 98°
2026-04-24 20:28 53.44190 -6.36474 1268 ft 119 kts 96°
2026-04-24 20:28 53.44114 -6.35102 1133 ft 117 kts 96°
2026-04-24 20:29 53.44060 -6.34209 1024 ft 115 kts 97°
2026-04-24 20:29 53.43960 -6.32434 812 ft 112 kts 95°
2026-04-24 20:29 53.43895 -6.31144 647 ft 111 kts 94°
2026-04-24 20:29 53.43826 -6.29874 488 ft 108 kts 94°
2026-04-24 20:30 53.43749 -6.28639 333 ft 105 kts 94°
2026-04-24 20:30 53.43680 -6.27414 215 ft 102 kts 94°
2026-04-24 20:30 53.43624 -6.26386 209 ft 69 kts 96°
2026-04-24 20:30 53.43592 -6.25800 206 ft 42 kts 95°
2026-04-24 20:31 53.43564 -6.25406 206 ft 28 kts 103°
2026-04-24 20:31 53.43502 -6.25150 208 ft 20 kts 119°
2026-04-24 20:31 53.43438 -6.24990 211 ft 9 kts 152°
2026-04-24 20:31 53.43384 -6.25020 207 ft 9 kts 241°
2026-04-24 20:32 53.43384 -6.25141 207 ft 12 kts 276°
2026-04-24 20:32 53.43392 -6.25286 207 ft 13 kts 275°
2026-04-24 20:32 53.43401 -6.25444 207 ft 14 kts 275°
2026-04-24 20:32 53.43404 -6.25614 207 ft 14 kts 250°
2026-04-24 20:33 53.43321 -6.25626 213 ft 13 kts 156°
2026-04-24 20:33 53.43239 -6.25565 207 ft 13 kts 156°
2026-04-24 20:33 53.43159 -6.25507 209 ft 12 kts 157°
2026-04-24 20:33 53.43079 -6.25450 211 ft 13 kts 156°
2026-04-24 20:34 53.42996 -6.25389 215 ft 13 kts 156°
2026-04-24 20:34 53.42909 -6.25326 215 ft 14 kts 156°
2026-04-24 20:34 53.42820 -6.25260 210 ft 14 kts 156°
2026-04-24 20:34 53.42741 -6.25194 209 ft 6 kts 118°
2026-04-24 20:35 53.42759 -6.25121 209 ft 8 kts 46°
2026-04-24 20:35 53.42767 -6.25037 212 ft 8 kts 124°
2026-04-24 20:35 53.42715 -6.24977 212 ft 11 kts 148°
2026-04-24 20:35 53.42663 -6.24894 207 ft 9 kts 97°
2026-04-24 20:36 53.42686 -6.24816 207 ft 7 kts 54°
2026-04-24 20:36 53.42714 -6.24756 212 ft 6 kts 40°
2026-04-24 20:36 53.42756 -6.24741 207 ft 7 kts
2026-04-24 20:36 53.42771 -6.24740 207 ft 0 kts